Year,Month,Day,Hour,Minute,Value (Times are PST for temperature in C)
2020,08,09,00,00,15.00
2020,08,09,00,01,15.00
2020,08,09,00,02,15.00
2020,08,09,00,03,15.00
2020,08,09,00,04,15.00
2020,08,09,00,05,15.00
2020,08,09,00,06,15.00
2020,08,09,00,07,15.00
2020,08,09,00,08,15.00
2020,08,09,00,09,15.00
2020,08,09,00,10,15.00
2020,08,09,00,11,15.00
2020,08,09,00,12,15.00
2020,08,09,00,13,15.00
2020,08,09,00,14,15.00
2020,08,09,00,15,15.00
2020,08,09,00,16,15.00
2020,08,09,00,17,15.00
2020,08,09,00,18,15.00
2020,08,09,00,19,15.00
2020,08,09,00,20,15.00
2020,08,09,00,21,15.00
2020,08,09,00,22,15.00
2020,08,09,00,23,15.00
2020,08,09,00,24,15.00
2020,08,09,00,25,15.00
2020,08,09,00,26,15.00
2020,08,09,00,27,15.00
2020,08,09,00,28,15.00
2020,08,09,00,29,15.00
2020,08,09,00,30,15.00
2020,08,09,00,31,15.00
2020,08,09,00,32,14.90
2020,08,09,00,33,14.90
2020,08,09,00,34,14.80
2020,08,09,00,35,14.80
2020,08,09,00,36,14.80
2020,08,09,00,37,14.70
2020,08,09,00,38,14.70
2020,08,09,00,39,14.70
2020,08,09,00,40,14.70
2020,08,09,00,41,14.60
2020,08,09,00,42,14.60
2020,08,09,00,43,14.60
2020,08,09,00,44,14.50
2020,08,09,00,45,14.50
2020,08,09,00,46,14.40
2020,08,09,00,47,14.40
2020,08,09,00,48,14.40
2020,08,09,00,49,14.30
2020,08,09,00,50,14.30
2020,08,09,00,51,14.30
2020,08,09,00,52,14.20
2020,08,09,00,53,14.20
2020,08,09,00,54,14.20
2020,08,09,00,55,14.20
2020,08,09,00,56,14.20
2020,08,09,00,57,14.10
2020,08,09,00,58,14.10
2020,08,09,00,59,14.10
2020,08,09,01,00,14.10
2020,08,09,01,01,14.00
2020,08,09,01,02,14.00
2020,08,09,01,03,13.90
2020,08,09,01,04,13.90
2020,08,09,01,05,13.90
2020,08,09,01,06,13.90
2020,08,09,01,07,13.80
2020,08,09,01,08,13.80
2020,08,09,01,09,13.80
2020,08,09,01,10,13.80
2020,08,09,01,11,13.80
2020,08,09,01,12,13.70
2020,08,09,01,13,13.70
2020,08,09,01,14,13.70
2020,08,09,01,15,13.70
2020,08,09,01,16,13.60
2020,08,09,01,17,13.60
2020,08,09,01,18,13.60
2020,08,09,01,19,13.60
2020,08,09,01,20,13.50
2020,08,09,01,21,13.50
2020,08,09,01,22,13.50
2020,08,09,01,23,13.40
2020,08,09,01,24,13.40
2020,08,09,01,25,13.30
2020,08,09,01,26,13.30
2020,08,09,01,27,13.30
2020,08,09,01,28,13.30
2020,08,09,01,29,13.20
2020,08,09,01,30,13.20
2020,08,09,01,31,13.20
2020,08,09,01,32,13.10
2020,08,09,01,33,13.10
2020,08,09,01,34,13.10
2020,08,09,01,35,13.00
2020,08,09,01,36,12.90
2020,08,09,01,37,12.90
2020,08,09,01,38,12.90
2020,08,09,01,39,12.80
2020,08,09,01,40,12.80
2020,08,09,01,41,12.80
2020,08,09,01,42,12.80
2020,08,09,01,43,12.70
2020,08,09,01,44,12.70
2020,08,09,01,45,12.70
2020,08,09,01,46,12.70
2020,08,09,01,47,12.70
2020,08,09,01,48,12.70
2020,08,09,01,49,12.70
2020,08,09,01,50,12.60
2020,08,09,01,51,12.60
2020,08,09,01,52,12.60
2020,08,09,01,53,12.60
2020,08,09,01,54,12.60
2020,08,09,01,55,12.60
2020,08,09,01,56,12.60
2020,08,09,01,57,12.60
2020,08,09,01,58,12.60
2020,08,09,01,59,12.60
2020,08,09,02,00,12.60
2020,08,09,02,01,12.60
2020,08,09,02,02,12.60
2020,08,09,02,03,12.60
2020,08,09,02,04,12.60
2020,08,09,02,05,12.50
2020,08,09,02,06,12.50
2020,08,09,02,07,12.50
2020,08,09,02,08,12.50
2020,08,09,02,09,12.40
2020,08,09,02,10,12.40
2020,08,09,02,11,12.40
2020,08,09,02,12,12.40
2020,08,09,02,13,12.40
2020,08,09,02,14,12.30
2020,08,09,02,15,12.30
2020,08,09,02,16,12.30
2020,08,09,02,17,12.30
2020,08,09,02,18,12.30
2020,08,09,02,19,12.20
2020,08,09,02,20,12.20
2020,08,09,02,21,12.20
2020,08,09,02,22,12.20
2020,08,09,02,23,12.20
2020,08,09,02,24,12.10
2020,08,09,02,25,12.10
2020,08,09,02,26,12.10
2020,08,09,02,27,12.10
2020,08,09,02,28,12.10
2020,08,09,02,29,12.00
2020,08,09,02,30,12.00
2020,08,09,02,31,12.00
2020,08,09,02,32,11.90
2020,08,09,02,33,11.90
2020,08,09,02,34,11.90
2020,08,09,02,35,11.90
2020,08,09,02,36,11.90
2020,08,09,02,37,11.90
2020,08,09,02,38,11.80
2020,08,09,02,39,11.80
2020,08,09,02,40,11.80
2020,08,09,02,41,11.80
2020,08,09,02,42,11.80
2020,08,09,02,43,11.80
2020,08,09,02,44,11.80
2020,08,09,02,45,11.70
2020,08,09,02,46,11.70
2020,08,09,02,47,11.70
2020,08,09,02,48,11.70
2020,08,09,02,49,11.70
2020,08,09,02,50,11.60
2020,08,09,02,51,11.60
2020,08,09,02,52,11.60
2020,08,09,02,53,11.60
2020,08,09,02,54,11.60
2020,08,09,02,55,11.50
2020,08,09,02,56,11.50
2020,08,09,02,57,11.50
2020,08,09,02,58,11.40
2020,08,09,02,59,11.40
2020,08,09,03,00,11.40
2020,08,09,03,01,11.40
2020,08,09,03,02,11.40
2020,08,09,03,03,11.40
2020,08,09,03,04,11.40
2020,08,09,03,05,11.40
2020,08,09,03,06,11.40
2020,08,09,03,07,11.40
2020,08,09,03,08,11.30
2020,08,09,03,09,11.30
2020,08,09,03,10,11.30
2020,08,09,03,11,11.30
2020,08,09,03,12,11.30
2020,08,09,03,13,11.30
2020,08,09,03,14,11.30
2020,08,09,03,15,11.30
2020,08,09,03,16,11.30
2020,08,09,03,17,11.30
2020,08,09,03,18,11.30
2020,08,09,03,19,11.30
2020,08,09,03,20,11.30
2020,08,09,03,21,11.30
2020,08,09,03,22,11.30
2020,08,09,03,23,11.20
2020,08,09,03,24,11.20
2020,08,09,03,25,11.20
2020,08,09,03,26,11.20
2020,08,09,03,27,11.20
2020,08,09,03,28,11.20
2020,08,09,03,29,11.20
2020,08,09,03,30,11.20
2020,08,09,03,31,11.20
2020,08,09,03,32,11.20
2020,08,09,03,33,11.20
2020,08,09,03,34,11.20
2020,08,09,03,35,11.20
2020,08,09,03,36,11.10
2020,08,09,03,37,11.10
2020,08,09,03,38,11.10
2020,08,09,03,39,11.10
2020,08,09,03,40,11.10
2020,08,09,03,41,11.10
2020,08,09,03,42,11.00
2020,08,09,03,43,11.00
2020,08,09,03,44,11.00
2020,08,09,03,45,10.90
2020,08,09,03,46,10.90
2020,08,09,03,47,10.90
2020,08,09,03,48,10.90
2020,08,09,03,49,10.90
2020,08,09,03,50,10.90
2020,08,09,03,51,10.80
2020,08,09,03,52,10.80
2020,08,09,03,53,10.80
2020,08,09,03,54,10.80
2020,08,09,03,55,10.80
2020,08,09,03,56,10.80
2020,08,09,03,57,10.80
2020,08,09,03,58,10.80
2020,08,09,03,59,10.80
2020,08,09,04,00,10.80
2020,08,09,04,01,10.80
2020,08,09,04,02,10.80
2020,08,09,04,03,10.80
2020,08,09,04,04,10.80
2020,08,09,04,05,10.70
2020,08,09,04,06,10.70
2020,08,09,04,07,10.70
2020,08,09,04,08,10.70
2020,08,09,04,09,10.70
2020,08,09,04,10,10.70
2020,08,09,04,11,10.70
2020,08,09,04,12,10.60
2020,08,09,04,13,10.60
2020,08,09,04,14,10.60
2020,08,09,04,15,10.60
2020,08,09,04,16,10.60
2020,08,09,04,17,10.60
2020,08,09,04,18,10.60
2020,08,09,04,19,10.60
2020,08,09,04,20,10.60
2020,08,09,04,21,10.60
2020,08,09,04,22,10.60
2020,08,09,04,23,10.60
2020,08,09,04,24,10.60
2020,08,09,04,25,10.60
2020,08,09,04,26,10.50
2020,08,09,04,27,10.50
2020,08,09,04,28,10.50
2020,08,09,04,29,10.50
2020,08,09,04,30,10.50
2020,08,09,04,31,10.50
2020,08,09,04,32,10.50
2020,08,09,04,33,10.40
2020,08,09,04,34,10.40
2020,08,09,04,35,10.40
2020,08,09,04,36,10.40
2020,08,09,04,37,10.40
2020,08,09,04,38,10.40
2020,08,09,04,39,10.40
2020,08,09,04,40,10.40
2020,08,09,04,41,10.30
2020,08,09,04,42,10.30
2020,08,09,04,43,10.30
2020,08,09,04,44,10.30
2020,08,09,04,45,10.30
2020,08,09,04,46,10.30
2020,08,09,04,47,10.30
2020,08,09,04,48,10.30
2020,08,09,04,49,10.20
2020,08,09,04,50,10.20
2020,08,09,04,51,10.20
2020,08,09,04,52,10.20
2020,08,09,04,53,10.20
2020,08,09,04,54,10.20
2020,08,09,04,55,10.20
2020,08,09,04,56,10.20
2020,08,09,04,57,10.20
2020,08,09,04,58,10.20
2020,08,09,04,59,10.20
2020,08,09,05,00,10.20
2020,08,09,05,01,10.20
2020,08,09,05,02,10.20
2020,08,09,05,03,10.20
2020,08,09,05,04,10.20
2020,08,09,05,05,10.20
2020,08,09,05,06,10.20
2020,08,09,05,07,10.20
2020,08,09,05,08,10.20
2020,08,09,05,09,10.20
2020,08,09,05,10,10.10
2020,08,09,05,11,10.10
2020,08,09,05,12,10.10
2020,08,09,05,13,10.10
2020,08,09,05,14,10.10
2020,08,09,05,15,10.10
2020,08,09,05,16,10.10
2020,08,09,05,17,10.00
2020,08,09,05,18,10.00
2020,08,09,05,19,10.00
2020,08,09,05,20,10.00
2020,08,09,05,21,10.00
2020,08,09,05,22,9.90
2020,08,09,05,23,9.90
2020,08,09,05,24,10.00
2020,08,09,05,25,10.00
2020,08,09,05,26,10.00
2020,08,09,05,27,10.00
2020,08,09,05,28,10.00
2020,08,09,05,29,9.90
2020,08,09,05,30,9.90
2020,08,09,05,31,9.90
2020,08,09,05,32,9.90
2020,08,09,05,33,9.90
2020,08,09,05,34,9.90
2020,08,09,05,35,9.90
2020,08,09,05,36,9.90
2020,08,09,05,37,9.90
2020,08,09,05,38,9.90
2020,08,09,05,39,9.90
2020,08,09,05,40,9.90
2020,08,09,05,41,9.90
2020,08,09,05,42,9.90
2020,08,09,05,43,9.90
2020,08,09,05,44,9.90
2020,08,09,05,45,9.80
2020,08,09,05,46,9.80
2020,08,09,05,47,9.80
2020,08,09,05,48,9.80
2020,08,09,05,49,9.80
2020,08,09,05,50,9.80
2020,08,09,05,51,9.80
2020,08,09,05,52,9.80
2020,08,09,05,53,9.80
2020,08,09,05,54,9.80
2020,08,09,05,55,9.80
2020,08,09,05,56,9.70
2020,08,09,05,57,9.70
2020,08,09,05,58,9.70
2020,08,09,05,59,9.70
2020,08,09,06,00,9.70
2020,08,09,06,01,9.70
2020,08,09,06,02,9.70
2020,08,09,06,03,9.70
2020,08,09,06,04,9.70
2020,08,09,06,05,9.70
2020,08,09,06,06,9.70
2020,08,09,06,07,9.70
2020,08,09,06,08,9.70
2020,08,09,06,09,9.70
2020,08,09,06,10,9.70
2020,08,09,06,11,9.70
2020,08,09,06,12,9.70
2020,08,09,06,13,9.70
2020,08,09,06,14,9.60
2020,08,09,06,15,9.60
2020,08,09,06,16,9.60
2020,08,09,06,17,9.60
2020,08,09,06,18,9.60
2020,08,09,06,19,9.60
2020,08,09,06,20,9.60
2020,08,09,06,21,9.60
2020,08,09,06,22,9.60
2020,08,09,06,23,9.60
2020,08,09,06,24,9.60
2020,08,09,06,25,9.60
2020,08,09,06,26,9.60
2020,08,09,06,27,9.60
2020,08,09,06,28,9.60
2020,08,09,06,29,9.60
2020,08,09,06,30,9.60
2020,08,09,06,31,9.60
2020,08,09,06,32,9.60
2020,08,09,06,33,9.60
2020,08,09,06,34,9.60
2020,08,09,06,35,9.60
2020,08,09,06,36,9.60
2020,08,09,06,37,9.60
2020,08,09,06,38,9.60
2020,08,09,06,39,9.60
2020,08,09,06,40,9.60
2020,08,09,06,41,9.60
2020,08,09,06,42,9.60
2020,08,09,06,43,9.60
2020,08,09,06,44,9.60
2020,08,09,06,45,9.60
2020,08,09,06,46,9.60
2020,08,09,06,47,9.60
2020,08,09,06,48,9.60
2020,08,09,06,49,9.60
2020,08,09,06,50,9.60
2020,08,09,06,51,9.60
2020,08,09,06,52,9.60
2020,08,09,06,53,9.60
2020,08,09,06,54,9.60
2020,08,09,06,55,9.60
2020,08,09,06,56,9.60
2020,08,09,06,57,9.60
2020,08,09,06,58,9.60
2020,08,09,06,59,9.60
2020,08,09,07,00,9.60
2020,08,09,07,01,9.60
2020,08,09,07,02,9.60
2020,08,09,07,03,9.60
2020,08,09,07,04,9.60
2020,08,09,07,05,9.60
2020,08,09,07,06,9.60
2020,08,09,07,07,9.60
2020,08,09,07,08,9.60
2020,08,09,07,09,9.60
2020,08,09,07,10,9.60
2020,08,09,07,11,9.60
2020,08,09,07,12,9.60
2020,08,09,07,13,9.60
2020,08,09,07,14,9.60
2020,08,09,07,15,9.60
2020,08,09,07,16,9.60
2020,08,09,07,17,9.60
2020,08,09,07,18,9.60
2020,08,09,07,19,9.60
2020,08,09,07,20,9.60
2020,08,09,07,21,9.70
2020,08,09,07,22,9.70
2020,08,09,07,23,9.70
2020,08,09,07,24,9.70
2020,08,09,07,25,9.70
2020,08,09,07,26,9.70
2020,08,09,07,27,9.70
2020,08,09,07,28,9.70
2020,08,09,07,29,9.70
2020,08,09,07,30,9.70
2020,08,09,07,31,9.80
2020,08,09,07,32,9.80
2020,08,09,07,33,9.90
2020,08,09,07,34,9.90
2020,08,09,07,35,9.90
2020,08,09,07,36,10.00
2020,08,09,07,37,10.00
2020,08,09,07,38,10.00
2020,08,09,07,39,10.10
2020,08,09,07,40,10.10
2020,08,09,07,41,10.10
2020,08,09,07,42,10.20
2020,08,09,07,43,10.30
2020,08,09,07,44,10.30
2020,08,09,07,45,10.40
2020,08,09,07,46,10.40
2020,08,09,07,47,10.50
2020,08,09,07,48,10.50
2020,08,09,07,49,10.60
2020,08,09,07,50,10.60
2020,08,09,07,51,10.70
2020,08,09,07,52,10.70
2020,08,09,07,53,10.80
2020,08,09,07,54,10.80
2020,08,09,07,55,10.80
2020,08,09,07,56,10.90
2020,08,09,07,57,10.90
2020,08,09,07,58,11.00
2020,08,09,07,59,11.00
2020,08,09,08,00,11.10
2020,08,09,08,01,11.10
2020,08,09,08,02,11.20
2020,08,09,08,03,11.20
2020,08,09,08,04,11.20
2020,08,09,08,05,11.30
2020,08,09,08,06,11.40
2020,08,09,08,07,11.40
2020,08,09,08,08,11.50
2020,08,09,08,09,11.60
2020,08,09,08,10,11.60
2020,08,09,08,11,11.70
2020,08,09,08,12,11.80
2020,08,09,08,13,11.90
2020,08,09,08,14,11.90
2020,08,09,08,15,12.00
2020,08,09,08,16,12.10
2020,08,09,08,17,12.20
2020,08,09,08,18,12.20
2020,08,09,08,19,12.20
2020,08,09,08,20,12.20
2020,08,09,08,21,12.30
2020,08,09,08,22,12.30
2020,08,09,08,23,12.30
2020,08,09,08,24,12.40
2020,08,09,08,25,12.40
2020,08,09,08,26,12.40
2020,08,09,08,27,12.40
2020,08,09,08,28,12.50
2020,08,09,08,29,12.50
2020,08,09,08,30,12.60
2020,08,09,08,31,12.60
2020,08,09,08,32,12.60
2020,08,09,08,33,12.70
2020,08,09,08,34,12.70
2020,08,09,08,35,12.70
2020,08,09,08,36,12.70
2020,08,09,08,37,12.80
2020,08,09,08,38,12.80
2020,08,09,08,39,12.80
2020,08,09,08,40,12.90
2020,08,09,08,41,12.90
2020,08,09,08,42,13.00
2020,08,09,08,43,13.00
2020,08,09,08,44,13.10
2020,08,09,08,45,13.10
2020,08,09,08,46,13.20
2020,08,09,08,47,13.20
2020,08,09,08,48,13.20
2020,08,09,08,49,13.30
2020,08,09,08,50,13.30
2020,08,09,08,51,13.40
2020,08,09,08,52,13.50
2020,08,09,08,53,13.50
2020,08,09,08,54,13.50
2020,08,09,08,55,13.60
2020,08,09,08,56,13.60
2020,08,09,08,57,13.70
2020,08,09,08,58,13.70
2020,08,09,08,59,13.80
2020,08,09,09,00,13.80
2020,08,09,09,01,13.90
2020,08,09,09,02,13.90
2020,08,09,09,03,13.90
2020,08,09,09,04,14.00
2020,08,09,09,05,14.00
2020,08,09,09,06,14.10
2020,08,09,09,07,14.10
2020,08,09,09,08,14.20
2020,08,09,09,09,14.20
2020,08,09,09,10,14.20
2020,08,09,09,11,14.30
2020,08,09,09,12,14.30
2020,08,09,09,13,14.30
2020,08,09,09,14,14.40
2020,08,09,09,15,14.50
2020,08,09,09,16,14.50
2020,08,09,09,17,14.60
2020,08,09,09,18,14.60
2020,08,09,09,19,14.70
2020,08,09,09,20,14.70
2020,08,09,09,21,14.80
2020,08,09,09,22,14.80
2020,08,09,09,23,14.90
2020,08,09,09,24,15.00
2020,08,09,09,25,15.00
2020,08,09,09,26,15.00
2020,08,09,09,27,15.00
2020,08,09,09,28,15.10
2020,08,09,09,29,15.30
2020,08,09,09,30,15.40
2020,08,09,09,31,15.50
2020,08,09,09,32,15.60
2020,08,09,09,33,15.70
2020,08,09,09,34,15.80
2020,08,09,09,35,15.90
2020,08,09,09,36,16.00
2020,08,09,09,37,16.10
2020,08,09,09,38,16.20
2020,08,09,09,39,16.30
2020,08,09,09,40,16.30
2020,08,09,09,41,16.40
2020,08,09,09,42,16.50
2020,08,09,09,43,16.70
2020,08,09,09,44,16.80
2020,08,09,09,45,16.90
2020,08,09,09,46,17.00
2020,08,09,09,47,17.10
2020,08,09,09,48,17.10
2020,08,09,09,49,17.10
2020,08,09,09,50,17.10
2020,08,09,09,51,17.20
2020,08,09,09,52,17.20
2020,08,09,09,53,17.30
2020,08,09,09,54,17.40
2020,08,09,09,55,17.40
2020,08,09,09,56,17.50
2020,08,09,09,57,17.70
2020,08,09,09,58,17.80
2020,08,09,09,59,17.80
2020,08,09,10,00,17.90
2020,08,09,10,01,18.00
2020,08,09,10,02,18.10
2020,08,09,10,03,18.20
2020,08,09,10,04,18.30
2020,08,09,10,05,18.40
2020,08,09,10,06,18.50
2020,08,09,10,07,18.50
2020,08,09,10,08,18.50
2020,08,09,10,09,18.60
2020,08,09,10,10,18.70
2020,08,09,10,11,18.80
2020,08,09,10,12,18.80
2020,08,09,10,13,18.90
2020,08,09,10,14,18.90
2020,08,09,10,15,18.90
2020,08,09,10,16,18.90
2020,08,09,10,17,19.00
2020,08,09,10,18,19.00
2020,08,09,10,19,18.90
2020,08,09,10,20,18.90
2020,08,09,10,21,18.90
2020,08,09,10,22,18.80
2020,08,09,10,23,18.80
2020,08,09,10,24,18.80
2020,08,09,10,25,18.90
2020,08,09,10,26,19.00
2020,08,09,10,27,19.10
2020,08,09,10,28,19.20
2020,08,09,10,29,19.20
2020,08,09,10,30,19.20
2020,08,09,10,31,19.20
2020,08,09,10,32,19.20
2020,08,09,10,33,19.30
2020,08,09,10,34,19.30
2020,08,09,10,35,19.30
2020,08,09,10,36,19.40
2020,08,09,10,37,19.50
2020,08,09,10,38,19.60
2020,08,09,10,39,19.70
2020,08,09,10,40,19.80
2020,08,09,10,41,19.90
2020,08,09,10,42,19.90
2020,08,09,10,43,19.90
2020,08,09,10,44,19.80
2020,08,09,10,45,19.80
2020,08,09,10,46,19.80
2020,08,09,10,47,19.90
2020,08,09,10,48,19.90
2020,08,09,10,49,20.00
2020,08,09,10,50,20.10
2020,08,09,10,51,20.10
2020,08,09,10,52,20.10
2020,08,09,10,53,20.20
2020,08,09,10,54,20.20
2020,08,09,10,55,20.20
2020,08,09,10,56,20.20
2020,08,09,10,57,20.30
2020,08,09,10,58,20.30
2020,08,09,10,59,20.40
2020,08,09,11,00,20.50
2020,08,09,11,01,20.60
2020,08,09,11,02,20.70
2020,08,09,11,03,20.80
2020,08,09,11,04,20.90
2020,08,09,11,05,20.90
2020,08,09,11,06,20.90
2020,08,09,11,07,21.00
2020,08,09,11,08,21.00
2020,08,09,11,09,21.10
2020,08,09,11,10,21.20
2020,08,09,11,11,21.20
2020,08,09,11,12,21.20
2020,08,09,11,13,21.00
2020,08,09,11,14,20.80
2020,08,09,11,15,20.70
2020,08,09,11,16,20.60
2020,08,09,11,17,20.50
2020,08,09,11,18,20.50
2020,08,09,11,19,20.50
2020,08,09,11,20,20.70
2020,08,09,11,21,20.70
2020,08,09,11,22,20.90
2020,08,09,11,23,21.00
2020,08,09,11,24,21.10
2020,08,09,11,25,21.20
2020,08,09,11,26,21.30
2020,08,09,11,27,21.30
2020,08,09,11,28,21.40
2020,08,09,11,29,21.40
2020,08,09,11,30,21.50
2020,08,09,11,31,21.60
2020,08,09,11,32,21.70
2020,08,09,11,33,21.80
2020,08,09,11,34,21.90
2020,08,09,11,35,22.00
2020,08,09,11,36,22.10
2020,08,09,11,37,22.20
2020,08,09,11,38,22.20
2020,08,09,11,39,22.20
2020,08,09,11,40,22.20
2020,08,09,11,41,22.20
2020,08,09,11,42,22.30
2020,08,09,11,43,22.30
2020,08,09,11,44,22.30
2020,08,09,11,45,22.10
2020,08,09,11,46,22.00
2020,08,09,11,47,22.00
2020,08,09,11,48,21.90
2020,08,09,11,49,21.80
2020,08,09,11,50,21.80
2020,08,09,11,51,21.70
2020,08,09,11,52,21.60
2020,08,09,11,53,21.50
2020,08,09,11,54,21.40
2020,08,09,11,55,21.40
2020,08,09,11,56,21.30
2020,08,09,11,57,21.40
2020,08,09,11,58,21.40
2020,08,09,11,59,21.40
2020,08,09,12,00,21.40
2020,08,09,12,01,21.40
2020,08,09,12,02,21.40
2020,08,09,12,03,21.40
2020,08,09,12,04,21.40
2020,08,09,12,05,21.50
2020,08,09,12,06,21.60
2020,08,09,12,07,21.70
2020,08,09,12,08,21.80
2020,08,09,12,09,21.90
2020,08,09,12,10,22.10
2020,08,09,12,11,22.20
2020,08,09,12,12,22.40
2020,08,09,12,13,22.40
2020,08,09,12,14,22.50
2020,08,09,12,15,22.60
2020,08,09,12,16,22.70
2020,08,09,12,17,22.70
2020,08,09,12,18,22.60
2020,08,09,12,19,22.50
2020,08,09,12,20,22.40
2020,08,09,12,21,22.30
2020,08,09,12,22,22.20
2020,08,09,12,23,22.10
2020,08,09,12,24,22.10
2020,08,09,12,25,22.10
2020,08,09,12,26,22.20
2020,08,09,12,27,22.20
2020,08,09,12,28,22.40
2020,08,09,12,29,22.50
2020,08,09,12,30,22.50
2020,08,09,12,31,22.60
2020,08,09,12,32,22.70
2020,08,09,12,33,22.80
2020,08,09,12,34,22.90
2020,08,09,12,35,23.10
2020,08,09,12,36,23.20
2020,08,09,12,37,23.40
2020,08,09,12,38,23.50
2020,08,09,12,39,23.60
2020,08,09,12,40,23.70
2020,08,09,12,41,23.80
2020,08,09,12,42,23.80
2020,08,09,12,43,23.90
2020,08,09,12,44,23.90
2020,08,09,12,45,23.90
2020,08,09,12,46,24.00
2020,08,09,12,47,24.10
2020,08,09,12,48,24.10
2020,08,09,12,49,24.10
2020,08,09,12,50,24.20
2020,08,09,12,51,24.30
2020,08,09,12,52,24.40
2020,08,09,12,53,24.50
2020,08,09,12,54,24.60
2020,08,09,12,55,24.60
2020,08,09,12,56,24.60
2020,08,09,12,57,24.50
2020,08,09,12,58,24.40
2020,08,09,12,59,24.40
2020,08,09,13,00,24.50
2020,08,09,13,01,24.50
2020,08,09,13,02,24.50
2020,08,09,13,03,24.40
2020,08,09,13,04,24.30
2020,08,09,13,05,24.20
2020,08,09,13,06,23.90
2020,08,09,13,07,23.80
2020,08,09,13,08,23.70
2020,08,09,13,09,23.80
2020,08,09,13,10,23.90
2020,08,09,13,11,24.00
2020,08,09,13,12,24.10
2020,08,09,13,13,24.10
2020,08,09,13,14,24.10
2020,08,09,13,15,24.20
2020,08,09,13,16,24.20
2020,08,09,13,17,24.20
2020,08,09,13,18,24.20
2020,08,09,13,19,24.20
2020,08,09,13,20,24.20
2020,08,09,13,21,24.20
2020,08,09,13,22,24.10
2020,08,09,13,23,24.10
2020,08,09,13,24,24.20
2020,08,09,13,25,24.30
2020,08,09,13,26,24.40
2020,08,09,13,27,24.40
2020,08,09,13,28,24.50
2020,08,09,13,29,24.60
2020,08,09,13,30,24.70
2020,08,09,13,31,24.80
2020,08,09,13,32,24.80
2020,08,09,13,33,24.80
2020,08,09,13,34,24.80
2020,08,09,13,35,24.60
2020,08,09,13,36,24.50
2020,08,09,13,37,24.30
2020,08,09,13,38,24.30
2020,08,09,13,39,24.20
2020,08,09,13,40,24.20
2020,08,09,13,41,24.20
2020,08,09,13,42,24.30
2020,08,09,13,43,24.40
2020,08,09,13,44,24.50
2020,08,09,13,45,24.50
2020,08,09,13,46,24.50
2020,08,09,13,47,24.50
2020,08,09,13,48,24.40
2020,08,09,13,49,24.40
2020,08,09,13,50,24.50
2020,08,09,13,51,24.60
2020,08,09,13,52,24.70
2020,08,09,13,53,24.80
2020,08,09,13,54,24.90
2020,08,09,13,55,25.10
2020,08,09,13,56,25.10
2020,08,09,13,57,25.00
2020,08,09,13,58,24.90
2020,08,09,13,59,24.90
2020,08,09,14,00,24.80
2020,08,09,14,01,24.70
2020,08,09,14,02,24.70
2020,08,09,14,03,24.80
2020,08,09,14,04,24.90
2020,08,09,14,05,25.00
2020,08,09,14,06,25.20
2020,08,09,14,07,25.30
2020,08,09,14,08,25.50
2020,08,09,14,09,25.50
2020,08,09,14,10,25.60
2020,08,09,14,11,25.60
2020,08,09,14,12,25.70
2020,08,09,14,13,25.70
2020,08,09,14,14,25.70
2020,08,09,14,15,25.60
2020,08,09,14,16,25.40
2020,08,09,14,17,25.30
2020,08,09,14,18,25.20
2020,08,09,14,19,25.20
2020,08,09,14,20,25.20
2020,08,09,14,21,25.20
2020,08,09,14,22,25.20
2020,08,09,14,23,25.30
2020,08,09,14,24,25.20
2020,08,09,14,25,25.10
2020,08,09,14,26,24.90
2020,08,09,14,27,24.90
2020,08,09,14,28,24.90
2020,08,09,14,29,24.90
2020,08,09,14,30,24.90
2020,08,09,14,31,25.00
2020,08,09,14,32,24.90
2020,08,09,14,33,24.90
2020,08,09,14,34,24.90
2020,08,09,14,35,24.90
2020,08,09,14,36,24.90
2020,08,09,14,37,25.00
2020,08,09,14,38,25.10
2020,08,09,14,39,25.20
2020,08,09,14,40,25.30
2020,08,09,14,41,25.40
2020,08,09,14,42,25.50
2020,08,09,14,43,25.60
2020,08,09,14,44,25.70
2020,08,09,14,45,25.70
2020,08,09,14,46,25.80
2020,08,09,14,47,25.90
2020,08,09,14,48,25.90
2020,08,09,14,49,25.90
2020,08,09,14,50,25.70
2020,08,09,14,51,25.50
2020,08,09,14,52,25.30
2020,08,09,14,53,25.30
2020,08,09,14,54,25.30
2020,08,09,14,55,25.30
2020,08,09,14,56,25.40
2020,08,09,14,57,25.40
2020,08,09,14,58,25.50
2020,08,09,14,59,25.60
2020,08,09,15,00,25.80
2020,08,09,15,01,25.90
2020,08,09,15,02,26.00
2020,08,09,15,03,26.00
2020,08,09,15,04,26.00
2020,08,09,15,05,25.90
2020,08,09,15,06,25.80
2020,08,09,15,07,25.70
2020,08,09,15,08,25.60
2020,08,09,15,09,25.50
2020,08,09,15,10,25.40
2020,08,09,15,11,25.40
2020,08,09,15,12,25.30
2020,08,09,15,13,25.20
2020,08,09,15,14,25.30
2020,08,09,15,15,25.40
2020,08,09,15,16,25.50
2020,08,09,15,17,25.70
2020,08,09,15,18,25.90
2020,08,09,15,19,25.90
2020,08,09,15,20,25.90
2020,08,09,15,21,25.80
2020,08,09,15,22,25.70
2020,08,09,15,23,25.70
2020,08,09,15,24,25.60
2020,08,09,15,25,25.50
2020,08,09,15,26,25.40
2020,08,09,15,27,25.30
2020,08,09,15,28,25.30
2020,08,09,15,29,25.30
2020,08,09,15,30,25.30
2020,08,09,15,31,25.40
2020,08,09,15,32,25.50
2020,08,09,15,33,25.70
2020,08,09,15,34,25.90
2020,08,09,15,35,25.90
2020,08,09,15,36,26.00
2020,08,09,15,37,26.00
2020,08,09,15,38,26.00
2020,08,09,15,39,25.90
2020,08,09,15,40,25.90
2020,08,09,15,41,25.80
2020,08,09,15,42,25.70
2020,08,09,15,43,25.70
2020,08,09,15,44,25.70
2020,08,09,15,45,25.70
2020,08,09,15,46,25.70
2020,08,09,15,47,25.80
2020,08,09,15,48,25.90
2020,08,09,15,49,25.90
2020,08,09,15,50,25.90
2020,08,09,15,51,25.90
2020,08,09,15,52,25.90
2020,08,09,15,53,25.90
2020,08,09,15,54,25.80
2020,08,09,15,55,25.80
2020,08,09,15,56,25.90
2020,08,09,15,57,25.90
2020,08,09,15,58,25.90
2020,08,09,15,59,25.90
2020,08,09,16,00,25.90
2020,08,09,16,01,25.90
2020,08,09,16,02,25.90
2020,08,09,16,03,25.90
2020,08,09,16,04,25.90
2020,08,09,16,05,25.80
2020,08,09,16,06,25.70
2020,08,09,16,07,25.60
2020,08,09,16,08,25.60
2020,08,09,16,09,25.60
2020,08,09,16,10,25.50
2020,08,09,16,11,25.50
2020,08,09,16,12,25.40
2020,08,09,16,13,25.30
2020,08,09,16,14,25.30
2020,08,09,16,15,25.30
2020,08,09,16,16,25.30
2020,08,09,16,17,25.30
2020,08,09,16,18,25.20
2020,08,09,16,19,25.20
2020,08,09,16,20,25.20
2020,08,09,16,21,25.30
2020,08,09,16,22,25.40
2020,08,09,16,23,25.50
2020,08,09,16,24,25.50
2020,08,09,16,25,25.40
2020,08,09,16,26,25.30
2020,08,09,16,27,25.30
2020,08,09,16,28,25.20
2020,08,09,16,29,25.30
2020,08,09,16,30,25.20
2020,08,09,16,31,25.30
2020,08,09,16,32,25.30
2020,08,09,16,33,25.30
2020,08,09,16,34,25.30
2020,08,09,16,35,25.20
2020,08,09,16,36,25.20
2020,08,09,16,37,25.20
2020,08,09,16,38,25.20
2020,08,09,16,39,25.10
2020,08,09,16,40,25.10
2020,08,09,16,41,25.00
2020,08,09,16,42,25.00
2020,08,09,16,43,24.90
2020,08,09,16,44,24.90
2020,08,09,16,45,24.80
2020,08,09,16,46,24.80
2020,08,09,16,47,24.80
2020,08,09,16,48,24.90
2020,08,09,16,49,24.90
2020,08,09,16,50,24.90
2020,08,09,16,51,25.00
2020,08,09,16,52,25.00
2020,08,09,16,53,25.10
2020,08,09,16,54,25.10
2020,08,09,16,55,25.10
2020,08,09,16,56,25.10
2020,08,09,16,57,25.10
2020,08,09,16,58,25.20
2020,08,09,16,59,25.20
2020,08,09,17,00,25.10
2020,08,09,17,01,25.10
2020,08,09,17,02,25.20
2020,08,09,17,03,25.20
2020,08,09,17,04,25.20
2020,08,09,17,05,25.30
2020,08,09,17,06,25.30
2020,08,09,17,07,25.30
2020,08,09,17,08,25.30
2020,08,09,17,09,25.30
2020,08,09,17,10,25.20
2020,08,09,17,11,25.20
2020,08,09,17,12,25.20
2020,08,09,17,13,25.10
2020,08,09,17,14,25.10
2020,08,09,17,15,25.00
2020,08,09,17,16,24.90
2020,08,09,17,17,24.90
2020,08,09,17,18,24.90
2020,08,09,17,19,24.90
2020,08,09,17,20,24.90
2020,08,09,17,21,24.90
2020,08,09,17,22,24.90
2020,08,09,17,23,24.90
2020,08,09,17,24,25.00
2020,08,09,17,25,25.00